Weather History for Volk, WI

Change the Weather History Date:

Sunday, July 7, 2013

  Actual Average Record
Temperature  
Mean Temperature 76 °F -  
Max Temperature 87 °F 77 °F 90 °F (2007)
Min Temperature 66 °F 62 °F 53 °F (1997)
Cooling Degree Days 12    
Growing Degree Days 26 (Base 50)    
Moisture  
Dew Point 68 °F    
Average Humidity 72    
Maximum Humidity 89    
Minimum Humidity 53    
Precipitation  
Precipitation 0.00 in - - ()
Sea Level Pressure  
Sea Level Pressure 29.92 in    
Wind  
Wind Speed 7 mph (South)    
Max Wind Speed 13 mph    
Max Gust Speed 17 mph    
Visibility 10 miles    
Events      
Averages and records for this station are not official NWS values.
T = Trace of Precipitation, MM = Missing Value Source: NWS Daily Summary

Daily Weather History Graph

Daily Weather History Graph

Search for Another Location

Airport:

Trip Planner

Search our weather history database for the weather conditions in past years. The results will help you decide how hot, cold, wet, or windy it might be!

Date:

Astronomy

Jul. 07, 2013 Rise Set
Actual Time 5:26 AM CDT 8:45 PM CDT
Civil Twilight 4:50 AM CDT 9:21 PM CDT
Nautical Twilight 4:04 AM CDT 10:07 PM CDT
Astronomical Twilight 3:06 AM CDT 11:04 PM CDT
Moon 5:04 AM CDT (7/7) 8:06 PM CDT (7/7)
Length of Visible Light 16h 30m
Length of Day
15h 19m
Waning Crescent, 0% of the Moon is Illuminated
Jul 7
Waning Crescent
Jul 8
New
Jul 15
First Quarter
Jul 22
Full
Jul 29
Last Quarter

Hourly Weather History & Observations

Time (CDT) Temp. Heat Index Dew Point Humidity Pressure Visibility Wind Dir Wind Speed Gust Speed Precip Events Conditions
12:58 AM 66.6 °F - 63.1 °F 89% 29.94 in 10.0 mi SSE 5.8 mph - N/A   Clear
1:58 AM 70.0 °F - 64.4 °F 82% 29.92 in 10.0 mi SSE 6.9 mph - N/A   Mostly Cloudy
2:58 AM 71.1 °F - 64.4 °F 79% 29.92 in 10.0 mi South 10.4 mph - N/A   Partly Cloudy
3:58 AM 69.3 °F - 64.4 °F 84% 29.92 in 10.0 mi SSE 8.1 mph - N/A   Clear
4:58 AM 70.3 °F - 64.6 °F 82% 29.92 in 10.0 mi South 9.2 mph - N/A   Clear
5:58 AM 71.1 °F - 64.9 °F 81% 29.92 in 10.0 mi South 5.8 mph - N/A   Partly Cloudy
6:58 AM 71.1 °F - 65.3 °F 82% 29.93 in 10.0 mi South 4.6 mph - N/A   Clear
7:58 AM 72.1 °F - 66.4 °F 82% 29.94 in 10.0 mi Variable 2.3 mph - N/A   Partly Cloudy
8:58 AM 73.8 °F - 66.9 °F 79% 29.95 in 10.0 mi South 2.3 mph - N/A   Clear
9:58 AM 76.1 °F - 67.6 °F 75% 29.95 in 10.0 mi SSE 3.5 mph - N/A   Clear
10:58 AM 78.1 °F - 68.4 °F 72% 29.95 in 10.0 mi SW 4.6 mph - N/A   Partly Cloudy
11:58 AM 81.1 °F 84.5 °F 69.8 °F 68% 29.94 in 10.0 mi Variable 4.6 mph - N/A   Partly Cloudy
12:58 PM 84.2 °F 88.4 °F 69.8 °F 62% 29.93 in 10.0 mi South 8.1 mph - N/A   Clear
1:58 PM 86.5 °F 91.4 °F 70.0 °F 58% 29.92 in 10.0 mi SSE 8.1 mph - N/A   Clear
2:58 PM 87.6 °F 91.5 °F 68.4 °F 53% 29.90 in 10.0 mi SSE 12.7 mph - N/A   Clear
3:58 PM 86.7 °F 90.3 °F 68.2 °F 54% 29.90 in 10.0 mi SSW 10.4 mph - N/A   Clear
4:58 PM 86.4 °F 91.4 °F 70.5 °F 59% 29.90 in 10.0 mi SW 11.5 mph 17.3 mph N/A   Clear
5:58 PM 85.6 °F 89.4 °F 68.9 °F 57% 29.89 in 10.0 mi SW 10.4 mph - N/A   Clear
6:58 PM 84.9 °F 88.8 °F 69.1 °F 59% 29.88 in 10.0 mi SSW 4.6 mph - N/A   Partly Cloudy
7:58 PM 83.1 °F 87.3 °F 70.2 °F 65% 29.89 in 10.0 mi South 5.8 mph - N/A   Partly Cloudy
8:54 PM 80.6 °F 83.9 °F 69.8 °F 70% 29.91 in 10.0 mi SSE 3.5 mph - N/A   Clear
9:54 PM 77.0 °F - 69.8 °F 78% 29.91 in 10.0 mi SSE 3.5 mph - N/A   Clear
10:54 PM 77.0 °F - 71.6 °F 83% 29.92 in 10.0 mi South 6.9 mph - N/A   Clear
11:54 PM 78.8 °F - 69.8 °F 74% 29.91 in 10.0 mi South 10.4 mph - N/A   Scattered Clouds